This is the latest recevied weather packets stored in our database for station/object N6GPM. If no packets are shown the sender has not sent any weather packets the latest 10 day(s).
| Time | Temp. | Humidity | Pressure | Rain* | Wind** | Luminosity | Snow |
|---|---|---|---|---|---|---|---|
| 1787462916 | 27.22° C | 40% | 1018.7 hPa | 0 mm | - | 0 W/m² | - |
| 1787462612 | 27.22° C | 40% | 1018.6 hPa | 0 mm | - | 0 W/m² | - |
| 1787462307 | 27.22° C | 40% | 1018.6 hPa | 0 mm | - | 0 W/m² | - |
| 1787462004 | 27.78° C | 40% | 1018.5 hPa | 0 mm | - | 0 W/m² | - |
| 1787461699 | 27.22° C | 41% | 1018.5 hPa | 0 mm | - | 0 W/m² | - |
| 1787461394 | 27.22° C | 42% | 1018.7 hPa | 0 mm | - | 0 W/m² | - |
| 1787461089 | 27.78° C | 42% | 1018.6 hPa | 0 mm | - | 0 W/m² | - |
| 1787460784 | 27.78° C | 41% | 1018.5 hPa | 0 mm | - | 0 W/m² | - |
| 1787460480 | 27.78° C | 40% | 1018.4 hPa | 0 mm | - | 0 W/m² | - |
| 1787460176 | 27.78° C | 40% | 1018.6 hPa | 0 mm | - | 0 W/m² | - |
| 1787459874 | 28.33° C | 39% | 1018.7 hPa | 0 mm | - | 0 W/m² | - |
| 1787459570 | 28.33° C | 38% | 1018.5 hPa | 0 mm | - | 0 W/m² | - |
| 1787459268 | 28.33° C | 38% | 1018.5 hPa | 0 mm | - | 0 W/m² | - |
| 1787458964 | 28.33° C | 38% | 1018.6 hPa | 0 mm | - | 0 W/m² | - |
| 1787458663 | 28.33° C | 39% | 1018.5 hPa | 0 mm | - | 0 W/m² | - |
| 1787458362 | 28.89° C | 39% | 1018.3 hPa | 0 mm | - | 0 W/m² | - |
| 1787458058 | 28.89° C | 39% | 1018.2 hPa | 0 mm | - | 0 W/m² | - |
| 1787457755 | 28.89° C | 38% | 1018.5 hPa | 0 mm | - | 0 W/m² | - |
| 1787457450 | 28.89° C | 38% | 1018.1 hPa | 0 mm | - | 0 W/m² | - |
| 1787457150 | 29.44° C | 38% | 1018.3 hPa | 0 mm | - | 0 W/m² | - |
| 1787456845 | 29.44° C | 38% | 1018.4 hPa | 0 mm | - | 0 W/m² | - |
| 1787456541 | 29.44° C | 38% | 1018.2 hPa | 0 mm | - | 0 W/m² | - |
| 1787456237 | 29.44° C | 38% | 1018.2 hPa | 0 mm | - | 0 W/m² | - |
| 1787455931 | 29.44° C | 38% | 1018 hPa | 0 mm | - | 0 W/m² | - |
| 1787455626 | 30° C | 37% | 1018.2 hPa | 0 mm | - | 0 W/m² | - |
* Rain latest hour (hover to see other rain measurements)
** Current wind speed in m/s (hover to see current wind gust speed)